FREGAT DEB [TANK] (43089 NORAD) Tracking and Keplerian Element Data

This shows tracking and keplerian element data for the satellite.

Feedback or suggestion? Click here.




ElementValue
Catalog43089
NameFREGAT DEB [TANK]
Epoch Orbit315
Epoch Day24.30634521
Epoch Year2018
RAAN317.9183
Inclination50.4201
Eccentricity0.2214
Argument of Perigee62.5274
Mean Anonmoly318.3019
Mean Motion10.99689752
Decay Rate6.736E-05
L11 43089U 17086C 18024.30634521 .00006736 33695-5 23386-3 0 9993
L22 43089 50.4201 317.9183 2214000 62.5274 318.3019 10.99689752 3155

Live tracking and technical data element details for FREGAT DEB [TANK] (NORAD 43089). FREGAT DEB [TANK] can be tracked NOW for your location showing map with azimuth and elevation plus other details from your city location.

Track the satellite on the map from your city or location and see movement details for azimuth, elevation, latitude, longitude, range, height, and movement on the map or in text.







IsCatalogInMostPopularTable: catalog: 43089, numindb: 274
Update: records affected: 1



GetName: 43089 FREGAT DEB [TANK]

Hit Count: updated at: Mon, 12 Nov 2018 17:31:42 GMT